CW3794 Weather Reports


Display with metric or nautical units.
time (UTC)temp
F
wind
direction
speed
MPH
gust
MPH
rain 1hr
in
rain 24hr
in
rain mn
in
humidity
%
barometer
mb
20170523121923 71 30 0.0 0.0 0.00 0.00 0.00 30 1011.0
20170523121457 71 30 0.0 0.0 0.00 0.00 0.00 29 1010.9
20170523120434 72 30 0.0 0.0 0.00 0.00 0.00 29 1010.7
20170523115442 72 30 0.0 0.0 0.00 0.00 0.00 28 1010.7
20170523113936 73 30 0.0 0.0 0.00 0.00 0.00 28 1010.7
20170523113428 74 30 0.0 0.0 0.00 0.00 0.00 27 1010.7
20170523112940 75 30 0.0 0.0 0.00 0.00 0.00 27 1010.7
20170523111958 75 30 0.0 0.0 0.00 0.00 0.00 25 1010.6
20170523110436 76 30 0.0 0.0 0.00 0.00 0.00 25 1010.5
20170523105940 76 31 0.0 0.0 0.00 0.00 0.00 25 1010.5
20170523105428 76 30 0.0 0.0 0.00 0.00 0.00 25 1010.4
20170523104944 76 30 0.0 0.0 0.00 0.00 0.00 25 1010.4
20170523101453 79 30 0.0 1.0 0.00 0.00 0.00 23 1010.1
20170523100454 79 0 0.0 0.0 0.00 0.00 0.00 23 1010.1
20170523095951 79 0 0.0 2.0 0.00 0.00 0.00 23 1010.1
20170523095423 79 0 0.0 3.0 0.00 0.00 0.00 23 1010.0
20170523094415 78 8 1.0 4.0 0.00 0.00 0.00 23 1010.1
20170523093428 78 14 0.0 2.0 0.00 0.00 0.00 23 1010.0
20170523092912 78 14 0.0 0.0 0.00 0.00 0.00 24 1010.0
20170523092447 79 8 0.0 0.0 0.00 0.00 0.00 23 1009.9
20170523091945 79 5 0.0 1.0 0.00 0.00 0.00 23 1009.9
20170523091457 80 4 0.0 4.0 0.00 0.00 0.00 22 1009.9
20170523090953 80 352 1.0 4.0 0.00 0.00 0.00 22 1009.8
20170523085947 80 347 0.0 4.0 0.00 0.00 0.00 22 1009.8
20170523084942 78 6 0.0 2.0 0.00 0.00 0.00 23 1009.7
20170523084435 78 7 0.0 0.0 0.00 0.00 0.00 23 1009.7
20170523081934 80 6 0.0 1.0 0.00 0.00 0.00 22 1009.7
20170523075917 82 5 0.0 3.0 0.00 0.00 0.00 21 1009.6
20170523075455 82 6 0.0 3.0 0.00 0.00 0.00 21 1009.7
20170523073914 79 334 0.0 4.0 0.00 0.00 0.00 22 1009.7
20170523073414 79 0 0.0 2.0 0.00 0.00 0.00 23 1009.6
20170523072457 79 0 0.0 0.0 0.00 0.00 0.00 23 1009.7
20170523071913 80 0 0.0 0.0 0.00 0.00 0.00 23 1009.5
20170523065922 80 0 0.0 0.0 0.00 0.00 0.00 22 1009.6
20170523065443 80 0 0.0 0.0 0.00 0.00 0.00 22 1009.6
20170523064928 81 0 0.0 0.0 0.00 0.00 0.00 23 1009.7
20170523064416 81 1 0.0 0.0 0.00 0.00 0.00 21 1009.7
20170523063936 81 4 0.0 0.0 0.00 0.00 0.00 22 1009.7
20170523063414 81 4 0.0 0.0 0.00 0.00 0.00 21 1009.7
20170523062422 82 5 0.0 0.0 0.00 0.00 0.00 21 1009.7
20170523061507 83 4 0.0 0.0 0.00 0.00 0.00 20 1009.7
20170523060937 83 5 0.0 0.0 0.00 0.00 0.00 20 1009.6
20170523060412 84 6 0.0 0.0 0.00 0.00 0.00 20 1009.7
20170523055431 85 5 0.0 5.0 0.00 0.00 0.00 19 1009.7
20170523053919 90 20 1.0 6.0 0.00 0.00 0.00 18 1009.6
20170523052943 91 324 2.0 11.0 0.00 0.00 0.00 17 1009.5
20170523051923 90 325 3.0 6.0 0.00 0.00 0.00 17 1009.5
20170523051413 90 322 3.0 6.0 0.00 0.00 0.00 17 1009.7
20170523050438 89 324 2.0 9.0 0.00 0.00 0.00 18 1009.7
20170523045942 89 236 0.0 2.0 0.00 0.00 0.00 19 1009.6
20170523045448 89 236 0.0 2.0 0.00 0.00 0.00 18 1009.4
20170523044445 89 235 0.0 2.0 0.00 0.00 0.00 18 1009.4
20170523043915 90 234 0.0 4.0 0.00 0.00 0.00 18 1009.3
20170523042425 89 234 0.0 0.0 0.00 0.00 0.00 18 1009.1
20170523041938 89 235 0.0 0.0 0.00 0.00 0.00 18 1009.1
20170523041431 90 233 0.0 1.0 0.00 0.00 0.00 18 1009.1
20170523035412 91 233 0.0 0.0 0.00 0.00 0.00 17 1009.0
20170523034932 92 233 0.0 0.0 0.00 0.00 0.00 17 1008.9
20170523034436 92 233 0.0 0.0 0.00 0.00 0.00 17 1008.9
20170523033424 92 233 0.0 0.0 0.00 0.00 0.00 17 1008.8
20170523032913 93 233 0.0 0.0 0.00 0.00 0.00 16 1008.8
20170523032450 93 233 0.0 1.0 0.00 0.00 0.00 16 1008.7
20170523031930 93 233 0.0 2.0 0.00 0.00 0.00 16 1008.7
20170523031425 93 233 0.0 2.0 0.00 0.00 0.00 16 1008.6
20170523025427 93 233 0.0 0.0 0.00 0.00 0.00 16 1008.6
20170523024422 94 233 0.0 0.0 0.00 0.00 0.00 16 1008.5
20170523023912 95 233 0.0 0.0 0.00 0.00 0.00 15 1008.5
20170523022433 95 234 0.0 1.0 0.00 0.00 0.00 15 1008.4
20170523020925 96 236 0.0 2.0 0.00 0.00 0.00 15 1008.2
20170523015921 96 209 0.0 1.0 0.00 0.00 0.00 15 1008.1
20170523014946 97 208 0.0 2.0 0.00 0.00 0.00 15 1008.1
20170523014450 97 211 0.0 2.0 0.00 0.00 0.00 15 1008.1
20170523013421 97 218 0.0 6.0 0.00 0.00 0.00 15 1008.1
20170523012447 97 219 1.0 4.0 0.00 0.00 0.00 14 1008.1
20170523011941 98 218 0.0 4.0 0.00 0.00 0.00 15 1008.1
20170523011429 98 219 1.0 3.0 0.00 0.00 0.00 15 1008.1
20170523010928 98 213 1.0 5.0 0.00 0.00 0.00 14 1008.1
20170523010452 98 233 2.0 7.0 0.00 0.00 0.00 14 1008.1
20170523005444 99 216 1.0 5.0 0.00 0.00 0.00 14 1008.2
20170523004924 99 228 1.0 5.0 0.00 0.00 0.00 14 1008.1
20170523003022 99 219 1.0 2.0 0.00 0.00 0.00 15 1008.2
20170523002423 99 160 0.0 2.0 0.00 0.00 0.00 14 1008.2
20170523001938 100 237 0.0 4.0 0.00 0.00 0.00 14 1008.3
20170523001449 100 236 0.0 4.0 0.00 0.00 0.00 14 1008.3
20170523000943 100 227 1.0 4.0 0.00 0.00 0.00 14 1008.3
20170522235936 100 237 1.0 11.0 0.00 0.00 0.00 14 1008.5
20170522234428 101 221 2.0 7.0 0.00 0.00 0.00 14 1008.5
20170522233930 101 214 0.0 12.0 0.00 0.00 0.00 14 1008.5
20170522233429 101 266 2.0 12.0 0.00 0.00 0.00 14 1008.6
20170522232912 101 255 4.0 11.0 0.00 0.00 0.00 14 1008.6
20170522232420 101 247 4.0 11.0 0.00 0.00 0.00 14 1008.6
20170522231420 102 236 3.0 12.0 0.00 0.00 0.00 14 1008.7
20170522230958 101 313 1.0 12.0 0.00 0.00 0.00 14 1008.7
20170522230433 101 263 1.0 12.0 0.00 0.00 0.00 14 1008.8
20170522225452 101 298 5.0 14.0 0.00 0.00 0.00 14 1008.8
20170522224923 101 248 4.0 14.0 0.00 0.00 0.00 14 1008.8
20170522224418 101 254 4.0 16.0 0.00 0.00 0.00 14 1008.9
20170522223417 101 307 1.0 13.0 0.00 0.00 0.00 15 1009.0
20170522222937 101 256 5.0 13.0 0.00 0.00 0.00 14 1009.2
20170522222444 101 244 2.0 12.0 0.00 0.00 0.00 14 1009.3
20170522221941 101 256 4.0 12.0 0.00 0.00 0.00 14 1009.3
20170522220944 100 252 3.0 11.0 0.00 0.00 0.00 14 1009.4
20170522220421 101 204 3.0 11.0 0.00 0.00 0.00 14 1009.5
20170522214927 101 249 2.0 10.0 0.00 0.00 0.00 14 1009.6
20170522214437 101 235 2.0 10.0 0.00 0.00 0.00 14 1009.8
20170522213955 101 218 1.0 5.0 0.00 0.00 0.00 14 1009.8
20170522212918 101 186 2.0 10.0 0.00 0.00 0.00 14 1009.9
20170522211950 101 272 1.0 10.0 0.00 0.00 0.00 15 1010.0
20170522211422 101 269 3.0 10.0 0.00 0.00 0.00 15 1010.1
20170522204421 100 287 1.0 9.0 0.00 0.00 0.00 15 1010.6
20170522203947 100 263 4.0 9.0 0.00 0.00 0.00 15 1010.6
20170522203452 100 250 0.0 4.0 0.00 0.00 0.00 15 1010.7
20170522202916 99 230 0.0 6.0 0.00 0.00 0.00 15 1010.8
20170522201938 100 191 1.0 5.0 0.00 0.00 0.00 16 1010.9
20170522201427 99 198 1.0 5.0 0.00 0.00 0.00 16 1010.9
20170522200953 99 285 2.0 5.0 0.00 0.00 0.00 16 1011.0
20170522200433 99 8 2.0 5.0 0.00 0.00 0.00 15 1011.0
20170522194427 98 264 2.0 6.0 0.00 0.00 0.00 16 1011.4
20170522192917 99 211 2.0 6.0 0.00 0.00 0.00 16 1011.5
20170522191452 97 315 0.0 6.0 0.00 0.00 0.00 16 1011.8
20170522190917 97 282 3.0 6.0 0.00 0.00 0.00 17 1011.9
20170522190415 97 69 0.0 3.0 0.00 0.00 0.00 15 1011.9
20170522185458 98 165 0.0 6.0 0.00 0.00 0.00 16 1012.1
20170522184919 98 163 0.0 6.0 0.00 0.00 0.00 16 1012.1
20170522181944 95 138 0.0 3.0 0.00 0.00 0.00 17 1012.2
20170522180946 95 276 0.0 4.0 0.00 0.00 0.00 17 1012.3
20170522175925 95 219 0.0 3.0 0.00 0.00 0.00 17 1012.5
20170522175455 95 133 0.0 1.0 0.00 0.00 0.00 18 1012.5
20170522174451 94 133 0.0 0.0 0.00 0.00 0.00 17 1012.5
20170522173417 94 131 0.0 2.0 0.00 0.00 0.00 18 1012.7
20170522172943 94 133 0.0 2.0 0.00 0.00 0.00 17 1012.7
20170522172438 93 110 0.0 2.0 0.00 0.00 0.00 19 1012.6
20170522165918 92 255 0.0 0.0 0.00 0.00 0.00 19 1012.7
20170522164440 91 258 0.0 3.0 0.00 0.00 0.00 18 1012.8
20170522163937 90 253 0.0 4.0 0.00 0.00 0.00 19 1012.8
20170522163431 90 249 1.0 4.0 0.00 0.00 0.00 19 1012.8
20170522162438 89 198 0.0 2.0 0.00 0.00 0.00 19 1012.7
20170522160435 88 208 0.0 0.0 0.00 0.00 0.00 20 1012.7
20170522155927 87 262 0.0 3.0 0.00 0.00 0.00 21 1012.7
20170522154443 87 58 0.0 1.0 0.00 0.00 0.00 22 1012.6
20170522153927 86 56 0.0 1.0 0.00 0.00 0.00 22 1012.6
20170522153427 86 56 0.0 0.0 0.00 0.00 0.00 22 1012.6
20170522152951 85 56 0.0 0.0 0.00 0.00 0.00 23 1012.6
20170522151924 84 53 0.0 0.0 0.00 0.00 0.00 25 1012.6
20170522151439 84 54 0.0 0.0 0.00 0.00 0.00 26 1012.5
20170522150923 84 52 0.0 0.0 0.00 0.00 0.00 26 1012.5
20170522150443 84 52 0.0 0.0 0.00 0.00 0.00 26 1012.4
20170522145921 83 50 0.0 0.0 0.00 0.00 0.00 25 1012.5
20170522144916 83 50 0.0 0.0 0.00 0.00 0.00 26 1012.3
20170522144417 83 50 0.0 0.0 0.00 0.00 0.00 26 1012.3
20170522143450 81 50 0.0 1.0 0.00 0.00 0.00 25 1012.3
20170522142428 79 51 0.0 0.0 0.00 0.00 0.00 28 1012.2
20170522140933 76 50 0.0 0.0 0.00 0.00 0.00 31 1012.2
20170522134949 75 50 0.0 0.0 0.00 0.00 0.00 33 1012.0
20170522133915 74 50 0.0 0.0 0.00 0.00 0.00 30 1011.9
20170522132447 71 28 0.0 0.0 0.00 0.00 0.00 31 1011.9
20170522131947 70 28 0.0 0.0 0.00 0.00 0.00 32 1011.8
20170522130920 69 28 0.0 0.0 0.00 0.00 0.00 34 1011.6
20170522130426 68 28 0.0 0.0 0.00 0.00 0.00 34 1011.6
20170522125935 68 28 0.0 0.0 0.00 0.00 0.00 33 1011.5
20170522124921 67 28 0.0 0.0 0.00 0.00 0.00 32 1011.3